Location: Eisingen in Unterfranken
(49.7591°N, 9.8347°E)
Time: 09:26:58
(UTC+01:00)

Envisat - Pass Details

Date: 05 December 2022
Orbit: 763 x 765 km, 98.2° (Epoch: 04 February)

Event Time Altitude Azimuth Distance (km) Brightness Sun altitude
Rises 17:04:08 0° 214° (SW) 3,221 7.5 -6.8°
Reaches altitude 10° 17:07:24 10° 237° (WSW) 2,301 7.2 -7.3°
Maximum altitude 17:10:21 15° 273° (W) 1,954 6.1 -7.7°
Drops below altitude 10° 17:13:20 10° 309° (NW) 2,312 5.9 -8.1°
Sets 17:16:39 0° 332° (NNW) 3,245 6.3 -8.6°
